Location: Unspecified
(0.0000°N, 0.0000°E)
Time: 20:34:58
(UTC+02:00)

Cosmos 2263 Rocket - Visible Passes

Search period start: 17 April 2014 00:00
Search period end: 27 April 2014 00:00
Orbit: 823 x 850 km, 71.0° (Epoch: 16 April)

Date Brightness Start Highest point End Pass type
(mag) Time Alt. Az. Time Alt. Az. Time Alt. Az.
23 Apr 4.5 21:55:23 10° SSW 21:55:28 10° SSW 21:55:28 10° SSW visible
24 Apr 2.3 21:38:49 10° S 21:43:17 56° SSE 21:43:17 56° SSE visible
25 Apr 2.0 21:22:16 10° S 21:27:44 63° ESE 21:33:13 10° NNE visible
26 Apr 2.2 21:05:43 10° S 21:11:09 56° ESE 21:16:34 10° NNE visible
